Probability
0 0 0 0 0 0 0 1 1 1 0 1 4 6 8 11 13 11 9 7 6 5 5 5 6 7 8 11 12 12 11 11 11 12 13 11 9 8 8 8 8 9 9 10
0 0 0 0 0 0 1 1 2 2 1 1 4 6 8 11 13 12 10 8 6 6 7 8 8 8 9 12 13 13 12 11 12 13 13 12 10 10 10 9 10 11 11 11
0 0 0 0 0 0 1 1 1 1 1 2 4 5 7 10 12 12 11 10 8 8 10 11 11 11 12 15 16 15 13 12 13 13 13 12 11 11 10 10 10 11 11 11
0 0 0 0 0 0 1 0 0 0 1 2 3 4 6 9 10 10 11 11 10 10 11 12 13 14 16 18 18 15 12 13 12 11 11 11 10 9 9 8 8 8 7 7
0 0 0 0 0 0 1 0 0 0 1 3 4 4 5 8 9 9 11 12 11 11 12 12 13 15 18 20 19 15 12 13 14 13 12 11 9 8 8 7 6 5 5 4
0 0 0 0 0 0 0 0 0 0 2 5 6 4 4 6 8 10 11 12 12 12 12 12 14 17 19 20 20 18 15 17 18 17 15 12 9 7 7 7 7 6 6 6
0 0 0 0 0 0 0 0 0 0 2 6 7 6 6 8 11 14 15 14 13 13 14 14 17 20 21 21 22 21 19 20 20 18 15 11 8 6 5 7 8 8 7 7
0 0 0 0 0 0 0 0 0 0 2 5 7 9 12 14 16 18 18 17 14 14 16 17 19 21 22 22 22 21 20 19 18 16 13 11 9 7 6 7 7 7 8 8
1 0 0 1 1 1 1 0 0 1 2 5 8 12 15 18 18 17 18 18 15 15 16 18 19 20 20 20 21 20 19 18 16 14 12 11 10 9 8 7 7 7 7 7
2 1 1 2 3 2 1 0 0 1 2 6 9 11 14 17 16 14 16 18 16 15 16 17 17 18 18 18 18 18 18 16 13 11 11 10 9 8 7 7 7 6 6 6
2 2 2 3 3 3 2 2 2 1 2 5 7 9 10 11 12 12 15 17 17 16 16 15 15 16 16 15 15 16 16 14 11 10 9 8 7 6 5 5 5 4 4 5
2 2 2 3 3 3 3 3 2 1 1 3 5 6 5 6 8 10 12 15 16 16 15 12 12 14 14 14 13 13 13 11 9 9 8 7 6 5 3 3 2 2 2 3
2 2 1 2 2 3 3 2 1 2 2 3 4 4 5 5 6 6 9 13 15 15 13 10 10 11 13 13 12 12 11 9 8 7 7 7 6 6 4 3 1 1 1 1
2 2 1 1 1 2 2 2 2 2 2 3 4 4 5 5 5 5 6 9 12 14 12 9 7 8 10 11 11 11 10 8 7 6 6 6 6 6 5 3 1 0 0 0
2 2 1 0 0 1 2 2 3 3 3 3 3 4 4 4 4 4 4 4 8 11 10 7 6 6 7 7 9 10 9 8 7 6 6 6 5 5 3 1 1 0 0 0
1 1 1 0 0 1 1 2 2 3 3 3 3 3 3 3 2 2 2 2 5 8 8 6 4 4 3 4 5 7 7 6 5 5 4 4 3 2 1 0 0 0 0 0
0 0 0 0 0 1 2 2 3 3 2 3 3 3 3 2 1 1 1 2 4 5 6 5 4 2 1 1 2 3 3 2 2 2 1 1 1 0 0 0 0 0 0 0
0 0 0 1 1 2 3 3 3 3 2 2 1 1 2 2 1 1 1 3 4 4 5 4 3 2 1 0 1 1 0 0 0 0 0 0 0 0 0 0 0 0 0 0
1 1 1 2 3 3 3 2 2 2 1 1 0 0 1 3 3 3 3 3 4 4 3 2 1 1 0 0 0 0 0 0 0 0 0 0 0 0 0 0 0 0 0 0
2 2 2 3 4 3 1 1 1 1 0 0 0 0 1 4 4 3 2 3 3 3 2 1 0 0 0 0 0 0 0 0 0 0 0 0 0 0 0 0 0 0 0 0
2 1 1 1 2 2 1 0 0 0 0 0 0 1 2 3 3 1 1 1 1 1 1 0 0 0 0 0 0 0 0 0 0 0 0 0 0 0 0 0 0 0 0 0
2 1 0 0 1 1 0 0 0 0 0 0 0 1 2 2 1 0 0 0 0 0 0 0 0 0 0 0 0 0 0 0 0 0 0 0 0 0 0 0 0 0 0 0
1 0 0 0 0 0 0 0 0 0 0 0 0 1 1 1 0 0 0 0 0 0 0 0 0 0 0 0 0 0 0 0 0 0 0 0 0 0 0 0 0 0 0 0
0 0 0 0 0 0 0 0 0 0 0 0 0 0 0 0 0 0 0 0 0 0 0 0 0 0 0 0 0 0 0 0 0 0 0 0 0 0 0 0 0 0 0 0
0 0 0 0 0 0 0 0 0 0 0 0 0 0 0 0 0 0 0 0 0 0 0 0 0 0 0 0 0 0 0 0 0 0 0 0 0 0 0 0 0 0 0 0
0 0 0 0 0 0 0 0 0 0 0 0 0 0 0 0 0 0 0 0 0 0 0 0 0 0 0 0 0 0 0 0 0 0 0 0 0 0 0 0 0 0 0 0
0 0 0 0 0 0 0 0 0 0 0 0 0 0 0 0 0 0 0 0 0 0 0 0 0 0 0 0 0 0 0 0 0 0 0 0 0 0 0 0 0 0 0 0
Wind_Speed
4 4 3 3 4 5 5 7 8 8 7 9 7 7 6 4 4 5 4 4 5 6 5 5 4 4 4 4 4 4 4 4 4 3 3 2 2 2 2 2 2 2 1 1
1 1 2 2 3 5 5 4 5 3 6 6 4 3 3 4 5 6 6 6 6 5 5 5 6 6 5 5 4 5 5 5 4 4 3 3 3 2 2 2 1 1 1 1
2 2 2 3 6 6 4 4 6 7 7 3 3 6 8 7 6 7 6 6 6 6 6 6 6 6 6 6 5 5 5 4 4 4 4 4 3 2 2 2 2 1 1 1
2 2 4 8 2 4 4 2 3 3 4 4 5 4 3 4 6 6 5 5 5 5 5 5 4 5 5 5 5 5 4 4 4 4 4 4 3 3 3 2 2 2 2 1
4 3 5 6 2 4 4 3 2 3 2 2 1 2 2 3 4 6 5 5 5 5 5 5 5 5 5 5 5 5 5 4 4 5 4 4 4 3 3 2 2 1 1 2
4 4 7 8 4 1 4 3 3 3 3 2 3 1 5 3 3 3 2 2 3 3 3 4 4 5 6 5 5 5 5 4 4 4 4 4 4 3 2 2 2 2 1 2
4 4 7 6 3 3 4 8 4 4 4 4 4 5 4 2 2 2 2 2 2 3 3 4 4 6 6 5 5 5 4 4 3 4 4 4 3 3 2 2 2 1 1 1
4 3 8 3 2 5 7 3 2 3 4 4 3 1 1 1 2 2 2 1 2 3 3 3 4 6 5 5 4 3 4 3 3 3 3 3 3 2 2 3 2 2 1 1
7 7 5 3 4 3 2 2 2 3 3 3 1 0 1 1 0 1 2 1 2 3 2 2 3 5 5 5 4 4 4 3 2 2 2 3 4 3 2 2 2 2 2 2
2 5 5 5 3 2 1 2 2 2 3 3 2 1 0 0 0 1 2 1 1 2 2 1 2 3 4 3 4 5 4 3 2 2 2 2 2 3 3 3 3 2 3 2
3 5 4 5 4 2 0 1 2 2 1 3 4 2 1 0 1 1 2 2 2 2 2 1 1 1 1 2 3 3 3 2 2 2 2 1 1 1 3 3 4 5 4 3
6 6 5 6 4 2 1 1 2 2 2 2 3 2 0 1 1 1 2 2 2 2 2 1 1 1 1 2 4 4 3 2 2 2 2 2 2 0 1 2 3 4 5 4
6 4 5 6 4 2 2 2 2 3 4 3 2 2 1 1 1 1 2 2 2 2 2 1 1 1 1 2 3 4 4 3 2 3 3 3 3 3 1 1 1 1 2 3
4 2 3 4 4 2 2 1 2 2 2 3 2 1 1 1 1 1 2 2 2 2 1 1 1 1 1 2 3 3 3 3 2 2 3 3 3 3 3 2 1 1 1 2
3 3 4 3 1 1 1 2 3 2 1 1 1 1 1 1 2 2 1 1 2 2 2 1 1 1 1 2 3 3 3 2 2 2 2 2 1 2 2 2 1 1 1 1
3 2 2 2 2 2 2 2 3 3 2 2 1 2 2 2 1 1 0 2 3 2 2 2 1 2 1 2 2 2 2 3 2 2 2 1 1 1 1 1 1 1 1 1
2 2 3 3 4 3 3 3 4 3 3 2 2 2 1 1 1 1 1 0 2 2 1 1 2 2 1 2 3 2 2 2 2 2 2 1 2 2 2 2 2 2 2 2
4 5 5 6 5 4 3 2 2 3 3 3 2 1 1 1 1 1 1 0 1 1 1 1 1 0 0 1 1 2 2 2 2 2 2 2 2 2 2 2 3 3 2 2
1 2 2 3 4 4 3 3 2 2 2 2 2 2 1 1 1 1 1 1 1 1 2 2 1 0 0 1 1 1 2 2 1 1 2 2 2 2 2 2 2 2 2 2
1 1 1 2 2 3 3 3 3 2 1 2 2 2 1 1 1 1 1 0 2 2 2 1 0 0 1 1 1 1 2 2 2 2 2 2 2 2 2 2 3 2 2 2
2 0 1 2 1 2 2 3 3 2 1 2 2 2 2 1 1 2 1 1 3 2 1 1 1 1 1 1 1 1 2 2 2 2 2 2 2 2 2 2 2 2 2 3
1 1 1 1 1 1 0 1 2 2 1 1 1 1 1 1 1 1 1 2 3 2 1 1 1 1 1 1 1 1 2 2 2 2 2 2 2 3 3 3 3 3 3 3
1 0 1 1 2 1 1 1 2 2 2 1 1 2 2 2 2 2 2 2 1 1 1 1 1 1 1 1 1 1 2 2 2 2 2 2 3 3 3 4 3 3 3 3
1 1 1 1 2 3 1 0 1 1 1 1 2 2 2 2 1 2 2 2 1 1 1 1 1 2 1 1 1 2 2 2 2 2 2 2 3 3 3 3 3 3 3 4
0 1 1 3 2 1 1 1 1 0 0 0 1 1 1 2 2 2 1 1 1 1 1 1 1 1 1 1 2 2 2 3 3 3 3 3 3 3 3 4 4 4 4 4
1 1 0 1 1 1 2 2 1 1 1 0 1 1 1 0 1 1 1 1 1 1 1 1 1 1 1 1 2 2 3 3 3 3 3 3 3 3 3 3 4 4 4 4
2 2 2 2 1 0 1 1 1 1 1 1 1 1 1 0 0 0 0 0 0 0 1 1 1 1 2 2 2 2 2 2 2 2 3 3 3 3 3 4 4 3 3 3
Wind_Direction
218 216 180 198 209 184 183 187 187 218 222 245 234 220 222 208 186 179 190 194 192 189 189 187 182 182 181 178 172 168 165 174 191 191 181 179 183 187 185 179 181 178 160 169
254 220 185 215 233 205 208 194 201 213 249 250 233 191 204 210 198 199 205 207 204 194 186 189 187 181 175 173 175 168 172 182 182 171 170 188 195 185 176 177 152 138 162 195
231 295 68 257 226 201 206 205 180 205 236 242 206 207 208 206 205 211 213 210 201 198 197 199 194 183 180 179 172 169 174 177 178 172 180 192 192 173 181 184 161 170 194 191
145 97 216 240 246 182 182 211 206 223 246 224 226 231 230 207 202 213 217 214 211 206 203 203 195 179 168 160 164 168 173 181 182 176 183 185 178 184 190 184 177 194 209 210
130 177 258 288 250 170 174 233 219 217 261 296 19 38 297 223 203 213 212 212 209 205 204 193 185 172 157 160 165 170 181 188 189 185 185 183 187 195 191 182 184 205 216 207
135 163 221 242 261 210 127 252 257 200 204 181 105 166 258 242 209 219 214 201 193 174 166 174 180 160 156 168 172 189 195 194 187 183 183 188 192 188 188 180 187 190 220 231
161 203 251 258 288 104 154 238 244 197 193 175 190 219 242 240 238 208 187 180 152 145 168 184 170 153 162 172 192 197 180 172 174 177 179 180 179 171 166 168 161 181 223 254
146 184 250 281 116 171 218 233 190 189 186 185 214 272 268 216 196 170 149 150 146 150 177 173 159 154 167 190 193 161 156 164 171 170 169 159 154 156 156 160 170 195 217 261
186 213 248 260 228 247 206 197 203 195 205 174 153 331 333 310 193 137 138 164 165 155 155 157 161 162 178 197 168 156 155 161 168 167 170 167 165 171 170 174 184 195 204 228
244 268 276 277 274 296 217 194 221 195 171 141 137 158 13 325 357 87 95 87 88 116 135 168 171 174 190 184 163 161 164 165 163 173 186 179 169 175 173 186 192 198 210 221
244 271 298 297 287 282 298 69 83 73 129 141 134 136 153 274 169 127 99 91 100 124 150 195 168 178 188 166 154 161 159 154 168 174 171 166 156 189 199 208 205 200 211 207
223 228 215 249 261 245 178 162 150 117 87 93 123 143 135 236 208 142 116 113 120 130 146 175 169 190 183 161 159 158 164 175 190 188 182 177 168 160 341 231 224 218 211 206
229 235 230 250 258 245 196 180 160 146 149 136 137 149 168 217 181 118 116 134 164 181 181 164 154 194 222 179 167 169 185 195 199 194 186 188 191 189 222 339 22 258 224 210
232 221 250 246 239 235 186 165 135 130 140 139 136 137 144 126 125 148 184 189 157 136 129 131 133 252 243 178 171 178 189 206 199 207 204 200 204 206 199 203 235 315 307 245
259 240 230 239 238 202 152 130 115 114 114 90 112 148 178 178 207 231 223 163 122 122 132 139 158 262 245 173 173 177 181 191 189 190 192 202 204 202 203 204 200 230 295 300
278 268 206 192 200 198 174 161 160 179 174 167 192 221 209 181 184 220 197 154 144 166 188 173 211 256 245 181 168 168 182 191 176 163 158 169 170 179 192 184 192 200 226 251
190 224 213 202 203 200 194 192 184 182 178 190 210 214 169 123 93 43 322 240 166 177 189 191 238 265 221 185 174 176 178 178 169 157 163 180 183 189 191 186 200 216 235 238
222 215 208 195 188 185 184 179 177 172 177 192 180 151 149 154 175 211 256 311 81 55 353 286 275 305 137 179 170 167 168 170 175 185 182 193 199 196 201 212 218 219 240 248
263 214 196 189 180 169 170 172 180 185 180 159 144 152 170 190 191 172 105 89 96 313 303 307 323 38 247 230 176 157 161 168 177 195 200 203 204 206 209 222 230 231 235 238
312 192 168 165 150 156 171 170 159 162 173 146 136 129 130 207 172 136 117 158 238 239 250 271 283 229 249 238 195 171 178 188 197 206 203 198 204 213 222 230 230 228 232 234
313 311 134 132 123 133 156 158 149 152 155 141 154 175 192 222 177 146 137 267 284 265 237 237 229 240 229 225 219 196 192 192 197 201 205 212 218 222 225 228 228 230 233 237
296 268 155 130 118 109 142 132 134 135 123 100 126 146 149 219 248 219 214 229 254 272 263 249 248 251 242 222 207 207 208 206 210 210 212 213 215 222 228 232 233 234 235 241
313 239 158 152 152 148 92 106 134 140 142 159 179 187 196 211 204 193 256 269 245 260 254 249 260 253 234 202 209 215 217 218 221 228 230 229 228 230 234 238 238 237 238 238
10 42 106 107 102 104 98 116 152 165 184 214 218 209 197 202 250 239 224 244 254 258 261 276 281 278 247 219 217 222 229 232 228 225 226 229 234 237 238 239 241 239 236 239
97 108 115 113 114 147 182 169 93 94 121 262 291 275 236 207 215 245 247 230 227 240 278 287 295 291 266 244 238 237 239 239 234 228 227 231 237 239 239 238 237 237 237 240
72 75 112 172 177 185 182 161 169 201 183 197 296 302 293 258 200 215 231 240 244 260 270 281 278 274 263 259 257 255 252 251 244 236 234 236 241 243 243 242 241 238 239 242
39 50 51 34 18 155 163 156 164 192 192 184 231 286 298 326 54 158 180 233 270 275 273 277 275 269 269 270 273 274 269 258 249 246 244 239 238 241 243 244 245 245 244 245